Skip Page Navigation
NASA JPL Caltech
NASA Logo - Jet Propulsion Laboratory + View the NASA Portal
+ Center for Near-Earth Object Studies
JPL Home Earth Solar System Stars & Galaxies Technology
JPL Solar System Dynamics
BODIES ORBITS EPHEMERIDES TOOLS PHYSICAL DATA DISCOVERY FAQ SITE MAP
IMPORTANT: The SSD Announcement email list is now available. Major changes are coming in the near future, including possible hostname and/or URL changes. To be notified of such changes, subscribe to this email list.

Please visit this page for more details.


JPL Small-Body Database Browser
Search: [ help ]  
201901 (2004 BG64)
Classification: Main-belt Asteroid          SPK-ID: 2201901
Ephemeris | Orbit Diagram | Orbital Elements | Mission Design | Physical Parameters | Discovery Circumstances | Close-Approach Data ]

[ show orbit diagram ]
Orbital Elements at Epoch 2458600.5 (2019-Apr-27.0) TDB
Reference: JPL 15 (heliocentric ecliptic J2000)
 Element Value Uncertainty (1-sigma)   Units 
e .1658822343845237 4.3025e-08  
a 3.189976956806326 3.195e-08 au
q 2.660816451576149 1.4674e-07 au
i 1.29608695785596 6.3085e-06 deg
node 39.80841546090377 0.00025175 deg
peri 55.19208375692885 0.00025279 deg
M 261.0761579781192 2.3108e-05 deg
tp 2459172.344857803882
(2020-Nov-18.84485780)
0.000138 TDB
period 2081.036730901159
5.70
3.1264e-05
8.56e-08
d
yr
n .1729906996135084 2.5989e-09 deg/d
Q 3.719137462036502 3.725e-08 au
  Orbit Determination Parameters
   # obs. used (total)      244  
   data-arc span      10179 days (27.87 yr)  
   first obs. used      1991-12-14  
   last obs. used      2019-10-27  
   planetary ephem.      DE431  
   SB-pert. ephem.      SB431-N16  
   condition code      0  
   norm. resid. RMS      .53058  
   source      ORB  
   producer      Otto Matic  
   solution date      2019-Nov-07 23:03:33  

Additional Information
 Earth MOID = 1.67794 au 
 Jupiter MOID = 1.46858 au 
 T_jup = 3.175 
[ show covariance matrix ]

Ephemeris | Orbit Diagram | Orbital Elements | Mission Design | Physical Parameters | Discovery Circumstances | Close-Approach Data ]

Physical Parameter Table
Parameter Symbol Value Units Sigma Reference Notes
absolute magnitude H 15.9   n/a MPO454431  
diameter diameter 3.478 km 1.157 urn:nasa:pds:neowise_diameters_albedos::2.0[mainbelt] (http://adsabs.harvard.edu/abs/2011ApJ...741...68M)  
geometric albedo albedo 0.053   0.019 urn:nasa:pds:neowise_diameters_albedos::2.0[mainbelt] (http://adsabs.harvard.edu/abs/2011ApJ...741...68M)  

201901 (2004 BG64)          Discovered 2004-Jan-22 by LINEAR at Socorro
Reference: 20081212/Numbers.arcLast Updated: 2008-12-12

[ show close-approach data ]
Alternate Designations
 2004 BG64 = 2005 GQ111 
Ephemeris | Orbit Diagram | Orbital Elements | Mission Design | Physical Parameters | Discovery Circumstances | Close-Approach Data ]
ABOUT SSD CREDITS/AWARDS PRIVACY/COPYRIGHT GLOSSARY LINKS
FirstGov 2020-Jan-26 06:13 UT
(server date/time)  
NASA Home Page
Site Manager:   Ryan S. Park
Webmaster  Alan B. Chamberlin